Location: Limoges
(45.8500°N, 1.2500°E)
Time: 01:00:41
(UTC+01:00)

ISS - Visible Passes

Search period start: 04 December 2023 00:00
Search period end: 14 December 2023 00:00
Orbit: 415 x 417 km, 51.6° (Epoch: 03 December)

Date Brightness Start Highest point End Pass type
(mag) Time Alt. Az. Time Alt. Az. Time Alt. Az.
04 Dec -1.7 19:04:28 10° W 19:07:21 26° SW 19:09:51 12° SSE visible
05 Dec -2.5 18:15:46 10° WNW 18:18:58 42° SW 18:22:09 10° SE visible
06 Dec -0.4 19:05:47 10° WSW 19:06:44 11° SW 19:07:41 10° SSW visible
07 Dec -0.7 18:16:08 10° W 18:18:29 18° SW 18:20:50 10° S visible
